Simultaneous Nadir Overpasses (SNOs) Predictions

Prediction of SNOs between METOP-A and TERRA Satellite Orbit:

Table of predicted SNOs for the next 14.0 days since TLE Epoch: 6/29/2013
Index Date (METOP-A) Time (METOP-A) Lat,Lon (METOP-A) SZA (METOP-A ) Date (TERRA) Time (TERRA) Lat,Lon (TERRA) SZA (TERRA ) Distance(km) Time Diff (sec)
1 06/29/2013 17:48:24 -81.30, 139.94 119.08 06/29/2013 17:48:26 -81.30, 140.02 119.07 1.43 2
2 06/29/2013 18:39:02 81.30, -52.05 61.01 06/29/2013 18:37:51 81.31, -52.22 60.95 2.84 71
3 07/02/2013 12:32:08 81.29, 38.61 61.04 07/02/2013 12:33:12 81.29, 38.74 61.09 2.37 64
4 07/02/2013 13:22:48 -81.30,-153.65 118.91 07/02/2013 13:22:39 -81.29,-153.68 118.92 0.73 9
5 07/05/2013 08:06:32 81.29, 105.33 61.31 07/05/2013 08:07:25 81.30, 105.26 61.33 1.37 53
6 07/
